This is the latest recevied weather packets stored in our database for station/object KC4BAM. If no packets are shown the sender has not sent any weather packets the latest 10 day(s).
| Time | Temp. | Humidity | Pressure | Rain* | Wind** | Luminosity | Snow |
|---|---|---|---|---|---|---|---|
| 1777408513 | 26.67° C | 68% | 1003.3 hPa | 0 mm | - | 180 W/m² | - |
| 1777408212 | 26.67° C | 67% | 1003.6 hPa | 0 mm | - | 157 W/m² | - |
| 1777407908 | 27.22° C | 66% | 1003.7 hPa | 0 mm | - | 142 W/m² | - |
| 1777407606 | 27.22° C | 67% | 1003.9 hPa | 0 mm | - | 452 W/m² | - |
| 1777407305 | 27.78° C | 66% | 1004.2 hPa | 0 mm | - | 418 W/m² | - |
| 1777407000 | 27.22° C | 67% | 1004.1 hPa | 0 mm | - | 574 W/m² | - |
| 1777406695 | 26.67° C | 68% | 1004.3 hPa | 0 mm | - | 518 W/m² | - |
| 1777406391 | 27.22° C | 67% | 1004.8 hPa | 0 mm | - | 365 W/m² | - |
| 1777406090 | 26.67° C | 68% | 1004.9 hPa | 0 mm | - | 345 W/m² | - |
| 1777405787 | 26.67° C | 68% | 1004.9 hPa | 0 mm | - | 407 W/m² | - |
| 1777405483 | 26.67° C | 67% | 1005 hPa | 0 mm | - | 482 W/m² | - |
| 1777405181 | 26.67° C | 66% | 1005.2 hPa | 0 mm | - | 660 W/m² | - |
| 1777404878 | 26.67° C | 67% | 1005.3 hPa | 0 mm | - | 602 W/m² | - |
| 1777404576 | 26.11° C | 67% | 1005.5 hPa | 0 mm | - | 198 W/m² | - |
| 1777404272 | 26.67° C | 66% | 1005.4 hPa | 0 mm | - | 620 W/m² | - |
| 1777403968 | 27.22° C | 65% | 1005.4 hPa | 0 mm | - | 626 W/m² | - |
| 1777403667 | 26.11° C | 67% | 1005.3 hPa | 0 mm | - | 665 W/m² | - |
| 1777403361 | 26.67° C | 67% | 1005.3 hPa | 0 mm | - | 532 W/m² | - |
| 1777403055 | 26.67° C | 68% | 1005.4 hPa | 0 mm | - | 554 W/m² | - |
| 1777402752 | 26.11° C | 69% | 1005.5 hPa | 0 mm | - | 264 W/m² | - |
| 1777402448 | 26.67° C | 67% | 1005.5 hPa | 0 mm | - | 513 W/m² | - |
| 1777402146 | 25.56° C | 68% | 1005.6 hPa | 0 mm | - | 534 W/m² | - |
| 1777401841 | 26.11° C | 69% | 1005.6 hPa | 0 mm | - | 609 W/m² | - |
| 1777401540 | 26.11° C | 69% | 1005.7 hPa | 0 mm | - | 223 W/m² | - |
| 1777401235 | 26.11° C | 70% | 1005.6 hPa | 0 mm | - | 705 W/m² | - |
* Rain latest hour (hover to see other rain measurements)
** Current wind speed in m/s (hover to see current wind gust speed)